Year,Month,Day,Hour,Minute,Value (Times are PST for insolation in W/m^2)
2013,09,05,00,00,0.00
2013,09,05,00,01,0.00
2013,09,05,00,02,0.00
2013,09,05,00,03,0.00
2013,09,05,00,04,0.00
2013,09,05,00,05,0.00
2013,09,05,00,06,0.00
2013,09,05,00,07,0.00
2013,09,05,00,08,0.00
2013,09,05,00,09,0.00
2013,09,05,00,10,0.00
2013,09,05,00,11,0.00
2013,09,05,00,12,0.00
2013,09,05,00,13,0.00
2013,09,05,00,14,0.00
2013,09,05,00,15,0.00
2013,09,05,00,16,0.00
2013,09,05,00,17,0.00
2013,09,05,00,18,0.00
2013,09,05,00,19,0.00
2013,09,05,00,20,0.00
2013,09,05,00,21,0.00
2013,09,05,00,22,0.00
2013,09,05,00,23,0.00
2013,09,05,00,24,0.00
2013,09,05,00,25,0.00
2013,09,05,00,26,0.00
2013,09,05,00,27,0.00
2013,09,05,00,28,0.00
2013,09,05,00,29,0.00
2013,09,05,00,30,0.00
2013,09,05,00,31,0.00
2013,09,05,00,32,0.00
2013,09,05,00,33,0.00
2013,09,05,00,34,0.00
2013,09,05,00,35,0.00
2013,09,05,00,36,0.00
2013,09,05,00,37,0.00
2013,09,05,00,38,0.00
2013,09,05,00,39,0.00
2013,09,05,00,40,0.00
2013,09,05,00,41,0.00
2013,09,05,00,42,0.00
2013,09,05,00,43,0.00
2013,09,05,00,44,0.00
2013,09,05,00,45,0.00
2013,09,05,00,46,0.00
2013,09,05,00,47,0.00
2013,09,05,00,48,0.00
2013,09,05,00,49,0.00
2013,09,05,00,50,0.00
2013,09,05,00,51,0.00
2013,09,05,00,52,0.00
2013,09,05,00,53,0.00
2013,09,05,00,54,0.00
2013,09,05,00,55,0.00
2013,09,05,00,56,0.00
2013,09,05,00,57,0.00
2013,09,05,00,58,0.00
2013,09,05,00,59,0.00
2013,09,05,01,00,0.00
2013,09,05,01,01,0.00
2013,09,05,01,02,0.00
2013,09,05,01,03,0.00
2013,09,05,01,04,0.00
2013,09,05,01,05,0.00
2013,09,05,01,06,0.00
2013,09,05,01,07,0.00
2013,09,05,01,08,0.00
2013,09,05,01,09,0.00
2013,09,05,01,10,0.00
2013,09,05,01,11,0.00
2013,09,05,01,12,0.00
2013,09,05,01,13,0.00
2013,09,05,01,14,0.00
2013,09,05,01,15,0.00
2013,09,05,01,16,0.00
2013,09,05,01,17,0.00
2013,09,05,01,18,0.00
2013,09,05,01,19,0.00
2013,09,05,01,20,0.00
2013,09,05,01,21,0.00
2013,09,05,01,22,0.00
2013,09,05,01,23,0.00
2013,09,05,01,24,0.00
2013,09,05,01,25,0.00
2013,09,05,01,26,0.00
2013,09,05,01,27,0.00
2013,09,05,01,28,0.00
2013,09,05,01,29,0.00
2013,09,05,01,30,0.00
2013,09,05,01,31,0.00
2013,09,05,01,32,0.00
2013,09,05,01,33,0.00
2013,09,05,01,34,0.00
2013,09,05,01,35,0.00
2013,09,05,01,36,0.00
2013,09,05,01,37,0.00
2013,09,05,01,38,0.00
2013,09,05,01,39,0.00
2013,09,05,01,40,0.00
2013,09,05,01,41,0.00
2013,09,05,01,42,0.00
2013,09,05,01,43,0.00
2013,09,05,01,44,0.00
2013,09,05,01,45,0.00
2013,09,05,01,46,0.00
2013,09,05,01,47,0.00
2013,09,05,01,48,0.00
2013,09,05,01,49,0.00
2013,09,05,01,50,0.00
2013,09,05,01,51,0.00
2013,09,05,01,52,0.00
2013,09,05,01,53,0.00
2013,09,05,01,54,0.00
2013,09,05,01,55,0.00
2013,09,05,01,56,0.00
2013,09,05,01,57,0.00
2013,09,05,01,58,0.00
2013,09,05,01,59,0.00
2013,09,05,02,00,0.00
2013,09,05,02,01,0.00
2013,09,05,02,02,0.00
2013,09,05,02,03,0.00
2013,09,05,02,04,0.00
2013,09,05,02,05,0.00
2013,09,05,02,06,0.00
2013,09,05,02,07,0.00
2013,09,05,02,08,0.00
2013,09,05,02,09,0.00
2013,09,05,02,10,0.00
2013,09,05,02,11,0.00
2013,09,05,02,12,0.00
2013,09,05,02,13,0.00
2013,09,05,02,14,0.00
2013,09,05,02,15,0.00
2013,09,05,02,16,0.00
2013,09,05,02,17,0.00
2013,09,05,02,18,0.00
2013,09,05,02,19,0.00
2013,09,05,02,20,0.00
2013,09,05,02,21,0.00
2013,09,05,02,22,0.00
2013,09,05,02,23,0.00
2013,09,05,02,24,0.00
2013,09,05,02,25,0.00
2013,09,05,02,26,0.00
2013,09,05,02,27,0.00
2013,09,05,02,28,0.00
2013,09,05,02,29,0.00
2013,09,05,02,30,0.00
2013,09,05,02,31,0.00
2013,09,05,02,32,0.00
2013,09,05,02,33,0.00
2013,09,05,02,34,0.00
2013,09,05,02,35,0.00
2013,09,05,02,36,0.00
2013,09,05,02,37,0.00
2013,09,05,02,38,0.00
2013,09,05,02,39,0.00
2013,09,05,02,40,0.00
2013,09,05,02,41,0.00
2013,09,05,02,42,0.00
2013,09,05,02,43,0.00
2013,09,05,02,44,0.00
2013,09,05,02,45,0.00
2013,09,05,02,46,0.00
2013,09,05,02,47,0.00
2013,09,05,02,48,0.00
2013,09,05,02,49,0.00
2013,09,05,02,50,0.00
2013,09,05,02,51,0.00
2013,09,05,02,52,0.00
2013,09,05,02,53,0.00
2013,09,05,02,54,0.00
2013,09,05,02,55,0.00
2013,09,05,02,56,0.00
2013,09,05,02,57,0.00
2013,09,05,02,58,0.00
2013,09,05,02,59,0.00
2013,09,05,03,00,0.00
2013,09,05,03,01,0.00
2013,09,05,03,02,0.00
2013,09,05,03,03,0.00
2013,09,05,03,06,0.00
2013,09,05,03,07,0.00
2013,09,05,03,08,0.00
2013,09,05,03,09,0.00
2013,09,05,03,10,0.00
2013,09,05,03,11,0.00
2013,09,05,03,12,0.00
2013,09,05,03,13,0.00
2013,09,05,03,14,0.00
2013,09,05,03,15,0.00
2013,09,05,03,16,0.00
2013,09,05,03,17,0.00
2013,09,05,03,18,0.00
2013,09,05,03,19,0.00
2013,09,05,03,20,0.00
2013,09,05,03,21,0.00
2013,09,05,03,22,0.00
2013,09,05,03,23,0.00
2013,09,05,03,24,0.00
2013,09,05,03,25,0.00
2013,09,05,03,26,0.00
2013,09,05,03,27,0.00
2013,09,05,03,28,0.00
2013,09,05,03,29,0.00
2013,09,05,03,30,0.00
2013,09,05,03,31,0.00
2013,09,05,03,32,0.00
2013,09,05,03,33,0.00
2013,09,05,03,34,0.00
2013,09,05,03,35,0.00
2013,09,05,03,36,0.00
2013,09,05,03,37,0.00
2013,09,05,03,38,0.00
2013,09,05,03,39,0.00
2013,09,05,03,40,0.00
2013,09,05,03,41,0.00
2013,09,05,03,42,0.00
2013,09,05,03,43,0.00
2013,09,05,03,44,0.00
2013,09,05,03,45,0.00
2013,09,05,03,46,0.00
2013,09,05,03,47,0.00
2013,09,05,03,48,0.00
2013,09,05,03,49,0.00
2013,09,05,03,50,0.00
2013,09,05,03,51,0.00
2013,09,05,03,52,0.00
2013,09,05,03,53,0.00
2013,09,05,03,54,0.00
2013,09,05,03,55,0.00
2013,09,05,03,56,0.00
2013,09,05,03,57,0.00
2013,09,05,03,58,0.00
2013,09,05,03,59,0.00
2013,09,05,04,00,0.00
2013,09,05,04,01,0.00
2013,09,05,04,02,0.00
2013,09,05,04,03,0.00
2013,09,05,04,04,0.00
2013,09,05,04,05,0.00
2013,09,05,04,06,0.00
2013,09,05,04,07,0.00
2013,09,05,04,08,0.00
2013,09,05,04,09,0.00
2013,09,05,04,10,0.00
2013,09,05,04,11,0.00
2013,09,05,04,12,0.00
2013,09,05,04,13,0.00
2013,09,05,04,14,0.00
2013,09,05,04,15,0.00
2013,09,05,04,16,0.00
2013,09,05,04,17,0.00
2013,09,05,04,18,0.00
2013,09,05,04,19,0.00
2013,09,05,04,20,0.00
2013,09,05,04,21,0.00
2013,09,05,04,22,0.00
2013,09,05,04,23,0.00
2013,09,05,04,24,0.00
2013,09,05,04,25,0.00
2013,09,05,04,26,0.00
2013,09,05,04,27,0.00
2013,09,05,04,28,0.00
2013,09,05,04,29,0.00
2013,09,05,04,30,0.00
2013,09,05,04,31,0.00
2013,09,05,04,32,0.00
2013,09,05,04,33,0.00
2013,09,05,04,34,0.00
2013,09,05,04,35,0.00
2013,09,05,04,36,0.00
2013,09,05,04,37,0.00
2013,09,05,04,38,0.00
2013,09,05,04,39,0.00
2013,09,05,04,40,0.00
2013,09,05,04,41,0.00
2013,09,05,04,42,0.00
2013,09,05,04,43,0.00
2013,09,05,04,44,0.00
2013,09,05,04,45,0.00
2013,09,05,04,46,0.00
2013,09,05,04,47,0.00
2013,09,05,04,48,0.00
2013,09,05,04,49,0.00
2013,09,05,04,50,0.00
2013,09,05,04,51,0.00
2013,09,05,04,52,0.00
2013,09,05,04,53,0.00
2013,09,05,04,54,0.00
2013,09,05,04,55,0.00
2013,09,05,04,56,0.00
2013,09,05,04,57,0.00
2013,09,05,04,58,0.00
2013,09,05,04,59,0.00
2013,09,05,05,00,0.00
2013,09,05,05,01,0.00
2013,09,05,05,02,0.00
2013,09,05,05,03,0.00
2013,09,05,05,04,0.00
2013,09,05,05,05,0.00
2013,09,05,05,06,0.00
2013,09,05,05,07,0.00
2013,09,05,05,08,0.00
2013,09,05,05,09,0.00
2013,09,05,05,10,0.00
2013,09,05,05,11,0.00
2013,09,05,05,12,0.00
2013,09,05,05,13,0.00
2013,09,05,05,14,0.00
2013,09,05,05,15,0.00
2013,09,05,05,16,0.00
2013,09,05,05,17,0.00
2013,09,05,05,18,0.00
2013,09,05,05,19,0.00
2013,09,05,05,20,0.00
2013,09,05,05,21,0.00
2013,09,05,05,22,0.00
2013,09,05,05,23,0.00
2013,09,05,05,24,0.00
2013,09,05,05,25,0.00
2013,09,05,05,26,0.00
2013,09,05,05,27,0.00
2013,09,05,05,28,0.00
2013,09,05,05,29,0.00
2013,09,05,05,30,0.00
2013,09,05,05,31,0.00
2013,09,05,05,32,0.00
2013,09,05,05,33,0.00
2013,09,05,05,34,0.00
2013,09,05,05,35,0.00
2013,09,05,05,36,0.00
2013,09,05,05,37,0.00
2013,09,05,05,38,0.00
2013,09,05,05,39,0.00
2013,09,05,05,40,0.00
2013,09,05,05,41,0.00
2013,09,05,05,42,0.00
2013,09,05,05,43,0.00
2013,09,05,05,44,0.00
2013,09,05,05,45,0.00
2013,09,05,05,46,0.00
2013,09,05,05,47,0.00
2013,09,05,05,48,0.00
2013,09,05,05,49,0.00
2013,09,05,05,50,0.00
2013,09,05,05,51,0.00
2013,09,05,05,52,0.00
2013,09,05,05,53,0.00
2013,09,05,05,54,0.00
2013,09,05,05,55,0.00
2013,09,05,05,56,0.00
2013,09,05,05,57,0.00
2013,09,05,05,58,0.00
2013,09,05,05,59,0.00
2013,09,05,06,00,0.00
2013,09,05,06,01,0.00
2013,09,05,06,02,0.00
2013,09,05,06,03,0.00
2013,09,05,06,04,0.00
2013,09,05,06,05,0.00
2013,09,05,06,06,0.00
2013,09,05,06,07,0.00
2013,09,05,06,08,0.00
2013,09,05,06,09,0.00
2013,09,05,06,10,0.00
2013,09,05,06,11,0.00
2013,09,05,06,12,0.00
2013,09,05,06,13,0.00
2013,09,05,06,14,0.00
2013,09,05,06,15,0.00
2013,09,05,06,16,0.00
2013,09,05,06,17,0.00
2013,09,05,06,18,0.00
2013,09,05,06,19,0.00
2013,09,05,06,20,0.00
2013,09,05,06,21,0.00
2013,09,05,06,22,0.00
2013,09,05,06,23,0.00
2013,09,05,06,24,0.00
2013,09,05,06,25,0.00
2013,09,05,06,26,0.00
2013,09,05,06,27,0.00
2013,09,05,06,28,0.00
2013,09,05,06,29,0.00
2013,09,05,06,30,0.00
2013,09,05,06,31,0.00
2013,09,05,06,32,0.00
2013,09,05,06,33,0.00
2013,09,05,06,34,0.00
2013,09,05,06,35,0.00
2013,09,05,06,36,0.00
2013,09,05,06,37,0.00
2013,09,05,06,38,0.00
2013,09,05,06,39,0.00
2013,09,05,06,40,0.00
2013,09,05,06,41,0.00
2013,09,05,06,42,0.00
2013,09,05,06,43,0.00
2013,09,05,06,44,0.00
2013,09,05,06,45,0.00
2013,09,05,06,46,0.00
2013,09,05,06,47,0.00
2013,09,05,06,48,4.50
2013,09,05,06,49,5.00
2013,09,05,06,50,5.00
2013,09,05,06,51,5.00
2013,09,05,06,52,5.00
2013,09,05,06,53,5.00
2013,09,05,06,54,5.40
2013,09,05,06,55,7.00
2013,09,05,06,56,7.00
2013,09,05,06,57,7.00
2013,09,05,06,58,7.00
2013,09,05,06,59,7.00
2013,09,05,07,00,7.00
2013,09,05,07,01,8.00
2013,09,05,07,02,9.00
2013,09,05,07,03,9.00
2013,09,05,07,04,9.00
2013,09,05,07,05,9.00
2013,09,05,07,06,9.00
2013,09,05,07,07,10.40
2013,09,05,07,08,11.00
2013,09,05,07,09,11.00
2013,09,05,07,10,11.00
2013,09,05,07,11,11.00
2013,09,05,07,12,11.00
2013,09,05,07,13,11.00
2013,09,05,07,14,12.00
2013,09,05,07,15,12.00
2013,09,05,07,16,12.00
2013,09,05,07,17,12.00
2013,09,05,07,18,12.00
2013,09,05,07,19,12.00
2013,09,05,07,20,12.50
2013,09,05,07,21,14.00
2013,09,05,07,22,14.00
2013,09,05,07,23,14.00
2013,09,05,07,24,14.00
2013,09,05,07,25,14.00
2013,09,05,07,26,14.00
2013,09,05,07,27,15.20
2013,09,05,07,28,17.30
2013,09,05,07,29,18.00
2013,09,05,07,30,18.00
2013,09,05,07,31,18.00
2013,09,05,07,32,18.00
2013,09,05,07,33,18.90
2013,09,05,07,34,19.00
2013,09,05,07,35,19.00
2013,09,05,07,36,21.00
2013,09,05,07,37,21.10
2013,09,05,07,38,23.00
2013,09,05,07,39,23.30
2013,09,05,07,40,26.00
2013,09,05,07,41,26.50
2013,09,05,07,42,28.50
2013,09,05,07,43,30.00
2013,09,05,07,44,30.70
2013,09,05,07,45,33.00
2013,09,05,07,46,38.60
2013,09,05,07,47,51.20
2013,09,05,07,48,57.90
2013,09,05,07,49,54.90
2013,09,05,07,50,49.80
2013,09,05,07,51,45.10
2013,09,05,07,52,46.10
2013,09,05,07,53,48.40
2013,09,05,07,54,50.50
2013,09,05,07,55,52.60
2013,09,05,07,56,55.50
2013,09,05,07,57,57.70
2013,09,05,07,58,59.90
2013,09,05,07,59,60.00
2013,09,05,08,00,62.00
2013,09,05,08,01,62.10
2013,09,05,08,02,63.30
2013,09,05,08,03,65.60
2013,09,05,08,04,69.80
2013,09,05,08,05,73.10
2013,09,05,08,06,76.30
2013,09,05,08,07,78.20
2013,09,05,08,08,82.10
2013,09,05,08,09,84.80
2013,09,05,08,10,87.80
2013,09,05,08,11,91.50
2013,09,05,08,12,95.20
2013,09,05,08,13,98.70
2013,09,05,08,14,100.00
2013,09,05,08,15,100.00
2013,09,05,08,16,105.20
2013,09,05,08,17,110.00
2013,09,05,08,18,112.60
2013,09,05,08,19,113.80
2013,09,05,08,20,114.00
2013,09,05,08,21,119.40
2013,09,05,08,22,121.00
2013,09,05,08,23,123.00
2013,09,05,08,24,123.90
2013,09,05,08,25,132.40
2013,09,05,08,26,135.40
2013,09,05,08,27,137.50
2013,09,05,08,28,139.00
2013,09,05,08,29,139.60
2013,09,05,08,30,141.40
2013,09,05,08,31,142.00
2013,09,05,08,32,144.50
2013,09,05,08,33,148.50
2013,09,05,08,34,149.00
2013,09,05,08,35,150.10
2013,09,05,08,36,151.00
2013,09,05,08,37,152.30
2013,09,05,08,38,151.70
2013,09,05,08,39,152.40
2013,09,05,08,40,153.00
2013,09,05,08,41,153.00
2013,09,05,08,42,153.00
2013,09,05,08,43,151.20
2013,09,05,08,44,148.30
2013,09,05,08,45,144.20
2013,09,05,08,46,141.90
2013,09,05,08,47,141.00
2013,09,05,08,48,140.80
2013,09,05,08,49,139.00
2013,09,05,08,50,138.00
2013,09,05,08,51,136.10
2013,09,05,08,52,139.00
2013,09,05,08,53,138.30
2013,09,05,08,54,136.20
2013,09,05,08,55,135.00
2013,09,05,08,56,135.00
2013,09,05,08,57,137.10
2013,09,05,08,58,140.50
2013,09,05,08,59,142.00
2013,09,05,09,00,142.00
2013,09,05,09,01,142.00
2013,09,05,09,02,141.30
2013,09,05,09,03,138.00
2013,09,05,09,04,134.60
2013,09,05,09,05,134.00
2013,09,05,09,06,122.90
2013,09,05,09,07,112.00
2013,09,05,09,08,102.40
2013,09,05,09,09,94.80
2013,09,05,09,10,89.80
2013,09,05,09,11,87.80
2013,09,05,09,12,86.30
2013,09,05,09,13,88.50
2013,09,05,09,14,90.20
2013,09,05,09,15,92.00
2013,09,05,09,16,95.70
2013,09,05,09,17,97.00
2013,09,05,09,18,97.00
2013,09,05,09,19,97.00
2013,09,05,09,20,96.00
2013,09,05,09,21,93.90
2013,09,05,09,22,91.80
2013,09,05,09,23,91.00
2013,09,05,09,24,90.30
2013,09,05,09,25,90.70
2013,09,05,09,26,92.50
2013,09,05,09,27,97.00
2013,09,05,09,28,103.10
2013,09,05,09,29,110.30
2013,09,05,09,30,117.30
2013,09,05,09,31,122.80
2013,09,05,09,32,128.20
2013,09,05,09,33,132.10
2013,09,05,09,34,134.00
2013,09,05,09,35,133.20
2013,09,05,09,36,129.40
2013,09,05,09,37,126.50
2013,09,05,09,38,123.80
2013,09,05,09,39,120.70
2013,09,05,09,40,119.20
2013,09,05,09,41,117.20
2013,09,05,09,42,116.00
2013,09,05,09,43,116.00
2013,09,05,09,44,117.10
2013,09,05,09,45,119.20
2013,09,05,09,46,120.60
2013,09,05,09,47,122.30
2013,09,05,09,48,124.40
2013,09,05,09,49,126.50
2013,09,05,09,50,127.80
2013,09,05,09,51,128.00
2013,09,05,09,52,128.00
2013,09,05,09,53,128.00
2013,09,05,09,54,127.10
2013,09,05,09,55,126.80
2013,09,05,09,56,122.80
2013,09,05,09,57,121.00
2013,09,05,09,58,121.00
2013,09,05,09,59,121.40
2013,09,05,10,00,123.00
2013,09,05,10,01,123.60
2013,09,05,10,02,125.70
2013,09,05,10,03,127.40
2013,09,05,10,04,128.90
2013,09,05,10,05,130.90
2013,09,05,10,06,132.00
2013,09,05,10,07,133.10
2013,09,05,10,08,134.60
2013,09,05,10,09,137.50
2013,09,05,10,10,140.90
2013,09,05,10,11,144.80
2013,09,05,10,12,148.20
2013,09,05,10,13,152.20
2013,09,05,10,14,154.70
2013,09,05,10,15,155.90
2013,09,05,10,16,159.60
2013,09,05,10,17,160.00
2013,09,05,10,18,160.00
2013,09,05,10,19,159.80
2013,09,05,10,20,158.00
2013,09,05,10,21,158.00
2013,09,05,10,22,158.00
2013,09,05,10,23,158.00
2013,09,05,10,24,158.00
2013,09,05,10,25,158.00
2013,09,05,10,26,158.00
2013,09,05,10,27,158.00
2013,09,05,10,28,158.90
2013,09,05,10,29,160.00
2013,09,05,10,30,161.10
2013,09,05,10,31,163.70
2013,09,05,10,32,166.30
2013,09,05,10,33,169.70
2013,09,05,10,34,171.00
2013,09,05,10,35,171.00
2013,09,05,10,36,171.00
2013,09,05,10,37,163.40
2013,09,05,10,38,162.00
2013,09,05,10,39,153.90
2013,09,05,10,40,153.00
2013,09,05,10,41,153.00
2013,09,05,10,42,153.00
2013,09,05,10,43,153.50
2013,09,05,10,44,159.10
2013,09,05,10,45,166.40
2013,09,05,10,46,173.80
2013,09,05,10,47,180.80
2013,09,05,10,48,186.80
2013,09,05,10,49,191.80
2013,09,05,10,50,195.00
2013,09,05,10,51,197.20
2013,09,05,10,52,201.00
2013,09,05,10,53,200.90
2013,09,05,10,54,198.40
2013,09,05,10,55,193.80
2013,09,05,10,56,187.30
2013,09,05,10,57,178.70
2013,09,05,10,58,176.00
2013,09,05,10,59,161.80
2013,09,05,11,00,152.10
2013,09,05,11,01,151.00
2013,09,05,11,02,138.30
2013,09,05,11,03,132.20
2013,09,05,11,04,130.00
2013,09,05,11,05,129.50
2013,09,05,11,06,124.80
2013,09,05,11,07,122.70
2013,09,05,11,08,120.20
2013,09,05,11,09,116.90
2013,09,05,11,10,113.70
2013,09,05,11,11,111.60
2013,09,05,11,12,109.00
2013,09,05,11,13,109.00
2013,09,05,11,14,109.00
2013,09,05,11,15,109.00
2013,09,05,11,16,110.00
2013,09,05,11,17,112.10
2013,09,05,11,18,113.60
2013,09,05,11,19,115.30
2013,09,05,11,20,116.00
2013,09,05,11,21,116.00
2013,09,05,11,22,116.00
2013,09,05,11,23,114.30
2013,09,05,11,24,113.10
2013,09,05,11,25,111.20
2013,09,05,11,26,109.10
2013,09,05,11,27,107.00
2013,09,05,11,28,107.00
2013,09,05,11,29,107.00
2013,09,05,11,30,107.00
2013,09,05,11,31,108.40
2013,09,05,11,32,114.00
2013,09,05,11,33,114.60
2013,09,05,11,34,116.00
2013,09,05,11,35,116.00
2013,09,05,11,36,116.00
2013,09,05,11,37,116.00
2013,09,05,11,38,117.00
2013,09,05,11,39,119.10
2013,09,05,11,40,120.60
2013,09,05,11,41,123.40
2013,09,05,11,42,126.30
2013,09,05,11,43,127.70
2013,09,05,11,44,127.30
2013,09,05,11,45,123.80
2013,09,05,11,46,119.00
2013,09,05,11,47,111.70
2013,09,05,11,48,104.70
2013,09,05,11,49,95.40
2013,09,05,11,50,87.70
2013,09,05,11,51,80.60
2013,09,05,11,52,76.60
2013,09,05,11,53,74.00
2013,09,05,11,54,73.60
2013,09,05,11,55,72.00
2013,09,05,11,56,73.20
2013,09,05,11,57,76.30
2013,09,05,11,58,79.20
2013,09,05,11,59,84.30
2013,09,05,12,00,89.30
2013,09,05,12,01,95.40
2013,09,05,12,02,102.90
2013,09,05,12,03,111.20
2013,09,05,12,04,118.60
2013,09,05,12,05,125.80
2013,09,05,12,06,133.00
2013,09,05,12,07,140.20
2013,09,05,12,08,146.60
2013,09,05,12,09,152.00
2013,09,05,12,10,154.70
2013,09,05,12,11,153.20
2013,09,05,12,12,148.20
2013,09,05,12,13,141.80
2013,09,05,12,14,137.00
2013,09,05,12,15,137.00
2013,09,05,12,16,136.60
2013,09,05,12,17,134.00
2013,09,05,12,18,134.20
2013,09,05,12,19,135.00
2013,09,05,12,20,135.00
2013,09,05,12,21,135.00
2013,09,05,12,22,135.80
2013,09,05,12,23,137.90
2013,09,05,12,24,139.00
2013,09,05,12,25,140.00
2013,09,05,12,26,141.00
2013,09,05,12,27,141.60
2013,09,05,12,28,143.30
2013,09,05,12,29,144.00
2013,09,05,12,30,145.50
2013,09,05,12,31,146.00
2013,09,05,12,32,146.00
2013,09,05,12,33,146.00
2013,09,05,12,34,144.20
2013,09,05,12,35,141.20
2013,09,05,12,36,138.80
2013,09,05,12,37,135.00
2013,09,05,12,38,135.00
2013,09,05,12,39,133.50
2013,09,05,12,40,124.00
2013,09,05,12,41,119.70
2013,09,05,12,42,116.00
2013,09,05,12,43,112.20
2013,09,05,12,44,103.20
2013,09,05,12,45,98.00
2013,09,05,12,46,92.80
2013,09,05,12,47,87.00
2013,09,05,12,48,81.40
2013,09,05,12,49,79.00
2013,09,05,12,50,73.40
2013,09,05,12,51,68.10
2013,09,05,12,52,65.50
2013,09,05,12,53,65.00
2013,09,05,12,54,62.60
2013,09,05,12,55,60.30
2013,09,05,12,56,60.00
2013,09,05,12,57,60.00
2013,09,05,12,58,60.00
2013,09,05,12,59,62.00
2013,09,05,13,00,62.10
2013,09,05,13,01,63.20
2013,09,05,13,02,65.30
2013,09,05,13,03,67.40
2013,09,05,13,04,69.00
2013,09,05,13,05,69.30
2013,09,05,13,06,70.70
2013,09,05,13,07,72.00
2013,09,05,13,08,72.00
2013,09,05,13,09,72.00
2013,09,05,13,10,72.00
2013,09,05,13,11,72.00
2013,09,05,13,12,72.00
2013,09,05,13,13,70.80
2013,09,05,13,14,70.00
2013,09,05,13,15,70.00
2013,09,05,13,16,70.00
2013,09,05,13,17,69.20
2013,09,05,13,18,69.00
2013,09,05,13,19,69.00
2013,09,05,13,20,69.00
2013,09,05,13,21,69.00
2013,09,05,13,22,66.90
2013,09,05,13,23,64.80
2013,09,05,13,24,62.90
2013,09,05,13,25,62.00
2013,09,05,13,26,62.00
2013,09,05,13,27,62.00
2013,09,05,13,28,62.30
2013,09,05,13,29,63.70
2013,09,05,13,30,65.80
2013,09,05,13,31,67.80
2013,09,05,13,32,69.00
2013,09,05,13,33,69.00
2013,09,05,13,34,67.90
2013,09,05,13,35,67.00
2013,09,05,13,36,67.00
2013,09,05,13,37,68.30
2013,09,05,13,38,69.70
2013,09,05,13,39,72.90
2013,09,05,13,40,75.60
2013,09,05,13,41,76.80
2013,09,05,13,42,78.70
2013,09,05,13,43,80.80
2013,09,05,13,44,82.90
2013,09,05,13,45,85.80
2013,09,05,13,46,91.30
2013,09,05,13,47,99.10
2013,09,05,13,48,110.10
2013,09,05,13,49,117.40
2013,09,05,13,50,123.50
2013,09,05,13,51,124.40
2013,09,05,13,52,121.20
2013,09,05,13,53,118.00
2013,09,05,13,54,113.40
2013,09,05,13,55,104.80
2013,09,05,13,56,100.00
2013,09,05,13,57,97.50
2013,09,05,13,58,95.90
2013,09,05,13,59,95.00
2013,09,05,14,00,96.30
2013,09,05,14,01,97.70
2013,09,05,14,02,99.40
2013,09,05,14,03,100.00
2013,09,05,14,04,101.70
2013,09,05,14,05,102.00
2013,09,05,14,06,104.70
2013,09,05,14,07,106.90
2013,09,05,14,08,111.10
2013,09,05,14,09,113.20
2013,09,05,14,10,116.50
2013,09,05,14,11,121.90
2013,09,05,14,12,128.50
2013,09,05,14,13,135.20
2013,09,05,14,14,139.60
2013,09,05,14,15,140.30
2013,09,05,14,16,137.50
2013,09,05,14,17,133.80
2013,09,05,14,18,130.20
2013,09,05,14,19,128.00
2013,09,05,14,20,131.30
2013,09,05,14,21,138.80
2013,09,05,14,22,150.20
2013,09,05,14,23,167.40
2013,09,05,14,24,191.50
2013,09,05,14,25,204.20
2013,09,05,14,26,204.50
2013,09,05,14,27,206.50
2013,09,05,14,28,207.00
2013,09,05,14,29,213.30
2013,09,05,14,30,206.40
2013,09,05,14,31,200.00
2013,09,05,14,32,189.80
2013,09,05,14,33,184.60
2013,09,05,14,34,180.70
2013,09,05,14,35,179.40
2013,09,05,14,36,181.80
2013,09,05,14,37,185.90
2013,09,05,14,38,191.10
2013,09,05,14,39,201.40
2013,09,05,14,40,213.80
2013,09,05,14,41,221.00
2013,09,05,14,42,221.00
2013,09,05,14,43,242.60
2013,09,05,14,44,262.00
2013,09,05,14,45,275.60
2013,09,05,14,46,291.00
2013,09,05,14,47,297.80
2013,09,05,14,48,299.00
2013,09,05,14,49,300.60
2013,09,05,14,50,301.80
2013,09,05,14,51,313.10
2013,09,05,14,52,336.50
2013,09,05,14,53,316.20
2013,09,05,14,54,315.60
2013,09,05,14,55,326.50
2013,09,05,14,56,317.80
2013,09,05,14,57,317.40
2013,09,05,14,58,323.70
2013,09,05,14,59,318.40
2013,09,05,15,00,318.80
2013,09,05,15,01,312.20
2013,09,05,15,02,303.50
2013,09,05,15,03,318.60
2013,09,05,15,04,348.00
2013,09,05,15,05,348.00
2013,09,05,15,06,348.00
2013,09,05,15,07,383.80
2013,09,05,15,08,356.20
2013,09,05,15,09,342.80
2013,09,05,15,10,358.50
2013,09,05,15,11,332.00
2013,09,05,15,12,294.20
2013,09,05,15,13,285.00
2013,09,05,15,14,286.70
2013,09,05,15,15,283.40
2013,09,05,15,16,286.80
2013,09,05,15,17,294.60
2013,09,05,15,18,303.20
2013,09,05,15,19,316.50
2013,09,05,15,20,330.40
2013,09,05,15,21,339.60
2013,09,05,15,22,349.40
2013,09,05,15,23,368.30
2013,09,05,15,24,396.00
2013,09,05,15,25,414.10
2013,09,05,15,26,397.90
2013,09,05,15,27,383.70
2013,09,05,15,28,372.00
2013,09,05,15,29,366.00
2013,09,05,15,30,366.00
2013,09,05,15,31,366.00
2013,09,05,15,32,366.00
2013,09,05,15,33,366.00
2013,09,05,15,34,366.00
2013,09,05,15,35,458.80
2013,09,05,15,36,482.00
2013,09,05,15,37,482.00
2013,09,05,15,38,482.00
2013,09,05,15,39,429.90
2013,09,05,15,40,410.90
2013,09,05,15,41,401.30
2013,09,05,15,42,417.40
2013,09,05,15,43,373.50
2013,09,05,15,44,347.00
2013,09,05,15,45,343.00
2013,09,05,15,46,343.00
2013,09,05,15,47,326.90
2013,09,05,15,48,282.70
2013,09,05,15,49,256.80
2013,09,05,15,50,238.80
2013,09,05,15,51,225.30
2013,09,05,15,52,214.50
2013,09,05,15,53,209.00
2013,09,05,15,54,201.40
2013,09,05,15,55,193.80
2013,09,05,15,56,190.60
2013,09,05,15,57,188.60
2013,09,05,15,58,188.00
2013,09,05,15,59,189.70
2013,09,05,16,00,191.70
2013,09,05,16,01,194.70
2013,09,05,16,02,195.00
2013,09,05,16,03,202.20
2013,09,05,16,04,206.10
2013,09,05,16,05,209.40
2013,09,05,16,06,213.10
2013,09,05,16,07,214.80
2013,09,05,16,08,219.20
2013,09,05,16,09,225.10
2013,09,05,16,10,232.80
2013,09,05,16,11,241.40
2013,09,05,16,12,247.60
2013,09,05,16,13,254.20
2013,09,05,16,14,259.10
2013,09,05,16,15,252.50
2013,09,05,16,16,249.70
2013,09,05,16,17,240.80
2013,09,05,16,18,230.80
2013,09,05,16,19,225.10
2013,09,05,16,20,220.80
2013,09,05,16,21,218.40
2013,09,05,16,22,218.00
2013,09,05,16,23,216.30
2013,09,05,16,24,219.60
2013,09,05,16,25,222.90
2013,09,05,16,26,237.90
2013,09,05,16,27,268.70
2013,09,05,16,28,266.30
2013,09,05,16,29,289.70
2013,09,05,16,30,313.00
2013,09,05,16,31,313.00
2013,09,05,16,32,328.20
2013,09,05,16,33,384.10
2013,09,05,16,34,393.50
2013,09,05,16,35,350.20
2013,09,05,16,36,312.40
2013,09,05,16,37,320.00
2013,09,05,16,38,362.50
2013,09,05,16,39,448.10
2013,09,05,16,40,482.00
2013,09,05,16,41,535.10
2013,09,05,16,42,566.00
2013,09,05,16,43,566.00
2013,09,05,16,44,563.60
2013,09,05,16,45,563.00
2013,09,05,16,46,334.40
2013,09,05,16,47,294.00
2013,09,05,16,48,417.20
2013,09,05,16,49,424.00
2013,09,05,16,50,209.00
2013,09,05,16,51,207.90
2013,09,05,16,52,198.70
2013,09,05,16,53,199.40
2013,09,05,16,54,206.90
2013,09,05,16,55,195.80
2013,09,05,16,56,184.90
2013,09,05,16,57,182.30
2013,09,05,16,58,181.00
2013,09,05,16,59,179.70
2013,09,05,17,00,178.00
2013,09,05,17,01,178.50
2013,09,05,17,02,188.90
2013,09,05,17,03,197.00
2013,09,05,17,04,180.10
2013,09,05,17,05,169.70
2013,09,05,17,06,167.50
2013,09,05,17,07,168.60
2013,09,05,17,08,169.00
2013,09,05,17,09,169.00
2013,09,05,17,10,170.80
2013,09,05,17,11,171.90
2013,09,05,17,12,174.00
2013,09,05,17,13,173.90
2013,09,05,17,14,171.00
2013,09,05,17,15,170.80
2013,09,05,17,16,169.00
2013,09,05,17,17,169.00
2013,09,05,17,18,169.00
2013,09,05,17,19,169.70
2013,09,05,17,20,171.40